Regional Weather Roundup
Issued by NWS

Home | Current Version | Previous Version | Graphics & Text | Print | Product List | Glossary On
Versions: 1 2 3 4 5 6 7 8 9 10 11 12 13 14 15 16 17 18 19 20 21 22 23 24 25 26 27 28 29 30 31 32 33 34 35 36 37 38 39 40 41 42 43 44 45 46 47 48 49 50
000
ASUS43 KIND 061559
RWRIN

WEATHER ROUNDUP FOR INDIANA
NATIONAL WEATHER SERVICE INDIANAPOLIS IN
1100 AM EST FRI MAR 06 2015

NOTE: "FAIR" INDICATES FEW OR NO CLOUDS BELOW 12,000 FEET WITH NO
SIGNIFICANT WEATHER AND/OR OBSTRUCTIONS TO VISIBILITY.

* - STATION DOES NOT REPORT WEATHER SUCH AS PRECIPITATION OR FOG.

+ - STATION NOT QUALITY CONTROLLED BY THE NATIONAL WEATHER SERVICE.
    USE DATA WITH CAUTION...ESPECIALLY DEWPOINT AND RELATIVE
    HUMIDITY OBSERVATIONS.

INZ001>003-010>013-019-020-061700-
NORTHWEST INDIANA

CITY           SKY/WX    TMP DP  RH WIND       PRES   REMARKS
GARY /AIRPORT/ MOSUNNY   16   0  48 SW12      30.44F WCI   3
VALPARAISO     NOT AVBL

$$

LMZ046-743>745-061700-
SOUTHERN LAKE MICHIGAN

STATION/POSITION TIME  TEMP WIND        PRES
                       AIR  DIR/SP/G
                 (UTC) (F)  (DEG/KT/KT) (MB)
MICHIGAN CITY    1500    9  180/ 12/ 17   N/A

$$

INZ004-005-014>016-021>024-061700-
NORTH CENTRAL INDIANA

CITY           SKY/WX    TMP DP  RH WIND       PRES   REMARKS
ELKHART        SUNNY     12  -2  52 SW12      30.46F WCI  -2
GOSHEN         SUNNY     11   3  70 SW14      30.46S WCI  -5
SOUTH BEND     SUNNY     14   2  58 SW17      30.44F WCI  -3

$$

INZ006>009-017-018-025>027-061700-
NORTHEAST INDIANA

CITY           SKY/WX    TMP DP  RH WIND       PRES   REMARKS
ANGOLA *+      SUNNY     10  -2  56 SW12      30.44S WCI  -4
FORT WAYNE     PTSUNNY   13   4  67 SW12      30.50S WCI  -1

$$

INZ028-029-035-036-043>045-051>053-061700-
WEST CENTRAL INDIANA

CITY           SKY/WX    TMP DP  RH WIND       PRES   REMARKS
CRAWFORDSVL +  SUNNY     15   2  56 SW13      30.50F WCI   0
GREENCASTLE +  SUNNY     19   5  53 S6        30.52F WCI  11
LAFAYETTE      SUNNY     14   3  61 SW12      30.50F WCI   0
TERRE HAUTE    SUNNY     18   6  59 S13       30.55F WCI   5

$$

INZ030>032-037>040-046>048-054>057-064-065-061700-
CENTRAL INDIANA

CITY           SKY/WX    TMP DP  RH WIND       PRES   REMARKS
ANDERSON       SUNNY     18   7  62 S12G23    30.51  WCI   5
COLUMBUS       MOSUNNY   18   5  57 S10       30.56F WCI   6
GREENWOOD *+   MOSUNNY   18   5  57 SW8       30.53S WCI   7
INDIANAPOLIS   PTSUNNY   17   6  62 S13       30.50F WCI   4
-EAGLE CREEK   SUNNY     17   6  62 S9        30.51F WCI   6
KOKOMO *+        N/A    N/A N/A N/A MISG        N/A
MT COMFORT *+  MOSUNNY   18   0  45 S12       30.51F WCI   5
SHELBYVILLE    MOSUNNY   18   8  65 S13       30.53F WCI   5

$$

INZ033-034-041-042-049-050-058-059-061700-
EAST CENTRAL INDIANA

CITY           SKY/WX    TMP DP  RH WIND       PRES   REMARKS
MUNCIE         MOSUNNY   17   7  64 S15G23    30.49F WCI   2

$$

INZ060-061-067>069-081>083-085>088-061700-
SOUTHWEST INDIANA

CITY           SKY/WX    TMP DP  RH WIND       PRES   REMARKS
EVANSVILLE     SUNNY     19   8  62 SW7       30.60F WCI  10
HUNTINGBURG *+ SUNNY     18   9  68 S9        30.58F WCI   6

$$

INZ062-063-066-070>080-084-089>092-061700-
SOUTH CENTRAL AND SOUTHEAST INDIANA

CITY           SKY/WX    TMP DP  RH WIND       PRES   REMARKS
BLOOMINGTON    SUNNY     20   7  57 SW14      30.53F WCI   7
SEYMOUR +      SUNNY     21  10  63 CALM      30.57F

$$



USA.gov is the U.S. government's official web portal to all federal, state and local government web resources and services.